Weather History for Logrono / Agoncillo, Spain

Change the Weather History Date:

Monday, December 9, 2013

  Actual Average Record
Temperature  
Mean Temperature 32 °F -  
Max Temperature 39 °F - - ()
Min Temperature 24 °F - - ()
Degree Days  
Heating Degree Days 34    
Moisture  
Dew Point 32 °F    
Average Humidity 91    
Maximum Humidity 100    
Minimum Humidity 75    
Precipitation  
Precipitation 0.00 in 0.04 in - ()
Sea Level Pressure  
Sea Level Pressure 30.49 in    
Wind  
Wind Speed 1 mph ()    
Max Wind Speed 4 mph    
Max Gust Speed -    
Visibility 2.9 miles    
Events Fog    
T = Trace of Precipitation, MM = Missing Value Source: Averaged Metar Reports

Daily Weather History Graph

Daily Weather History Graph

Search for Another Location

Airport:

Trip Planner

Search our weather history database for the weather conditions in past years. The results will help you decide how hot, cold, wet, or windy it might be!

Date:

Astronomy

Dec. 09, 2013 Rise Set
Actual Time 8:27 AM CET 5:36 PM CET
Civil Twilight 7:55 AM CET 6:08 PM CET
Nautical Twilight 7:19 AM CET 6:43 PM CET
Astronomical Twilight 6:45 AM CET 7:17 PM CET
Moon 1:05 PM CET (12/9) 12:15 AM CET (12/9)
Length of Visible Light 10h 12m
Length of Day
9h 09m
Waxing Crescent, 48% of the Moon is Illuminated
Dec 9
Waxing Crescent
Dec 9
First Quarter
Dec 17
Full
Dec 25
Last Quarter
Jan 1
New

Hourly Weather History & Observations

Time (CET) Temp. Windchill Dew Point Humidity Pressure Visibility Wind Dir Wind Speed Gust Speed Precip Events Conditions
12:00 AM 28 °F - 26 °F 88% 30.50 in - Calm Calm - -  
12:00 AM 30.2 °F - 28.4 °F 93% 30.42 in 5.0 mi Calm Calm - N/A   Unknown
1:00 AM 28 °F - 26 °F 86% 30.51 in 5 mi Calm Calm - -   Mist
1:00 AM 28.4 °F - 26.6 °F 93% 30.42 in 5.0 mi Calm Calm - N/A   Unknown
2:00 AM 26 °F - 24 °F 88% 30.52 in - Calm Calm - -  
2:00 AM 28.4 °F - 28.4 °F 100% 30.42 in 3.7 mi Calm Calm - N/A Fog Patches of Fog
3:00 AM 26 °F - 24 °F 88% 30.52 in - NNW 1.2 mph - -  
3:00 AM 28.4 °F - 28.4 °F 100% 30.42 in 2.5 mi Calm Calm - N/A   Mist
4:00 AM 26.6 °F - 26.6 °F 100% 30.45 in 5.6 mi Calm Calm - N/A   Unknown
5:00 AM 24 °F - 22 °F 86% 30.53 in - Calm Calm - -  
5:00 AM 26.6 °F - 26.6 °F 100% 30.45 in 5.6 mi Calm Calm - N/A   Unknown
6:00 AM 28 °F - 25 °F 84% 30.53 in - WSW 1.2 mph - -  
6:00 AM 26.6 °F - 26.6 °F 100% 30.45 in 2.5 mi Calm Calm - N/A   Mostly Cloudy
7:00 AM 29 °F - 26 °F 85% 30.53 in 3 mi Calm Calm - -   Mist
7:00 AM 28.4 °F - 28.4 °F 100% 30.45 in 3.1 mi Calm Calm - N/A   Mostly Cloudy
7:52 AM 30.2 °F - 30.2 °F 100% 30.45 in 0.6 mi Variable 1.2 mph - N/A Fog Patches of Fog
8:00 AM 30 °F - 27 °F 85% 30.54 in - ENE 2.3 mph - -  
8:00 AM 30.2 °F - 30.2 °F 100% 30.45 in 0.4 mi Variable 1.2 mph - N/A Fog Patches of Fog
9:00 AM 31 °F - 29 °F 88% 30.54 in - ENE 2.3 mph - -  
9:00 AM 32.0 °F - 32.0 °F 100% 30.48 in 0.2 mi Variable 1.2 mph - N/A Fog Light Freezing Fog
10:00 AM 32.0 °F - 32.0 °F 100% 30.48 in 0.1 mi Variable 1.2 mph - N/A Fog Fog
10:20 AM 33.8 °F - 33.8 °F 100% 30.48 in 0.7 mi Calm Calm - N/A   Mostly Cloudy
11:00 AM 34 °F - 31 °F 86% 30.56 in - Calm Calm - -  
11:00 AM 33.8 °F - 33.8 °F 100% 30.51 in 1.6 mi Variable 2.3 mph - N/A   Mostly Cloudy
12:00 PM 35 °F - 32 °F 85% 30.55 in - Calm Calm - -  
12:00 PM 35.6 °F - 35.6 °F 100% 30.48 in 1.6 mi Variable 1.2 mph - N/A   Mostly Cloudy
1:00 PM 36 °F - 33 °F 87% 30.53 in 2 mi Calm Calm - -   Mist
1:00 PM 35.6 °F - 35.6 °F 100% 30.48 in 1.6 mi Calm Calm - N/A   Mostly Cloudy
2:00 PM 37 °F - 35 °F 87% 30.52 in - West 1.2 mph - -  
2:00 PM 37.4 °F - 37.4 °F 100% 30.45 in 1.6 mi Variable 1.2 mph - N/A   Mostly Cloudy
3:00 PM 38 °F - 35 °F 82% 30.50 in - Calm Calm - -  
3:00 PM 39.2 °F - 37.4 °F 93% 30.45 in 2.2 mi Variable 1.2 mph - N/A   Mostly Cloudy
4:00 PM 41.0 °F - 39.2 °F 93% 30.45 in 2.8 mi Calm Calm - N/A   Mostly Cloudy
5:00 PM 40 °F - 35 °F 77% 30.50 in - Calm Calm - -  
5:00 PM 41.0 °F - 39.2 °F 93% 30.45 in 3.1 mi Variable 1.2 mph - N/A   Mostly Cloudy
6:00 PM 39 °F - 34 °F 76% 30.50 in - West 1.2 mph - -  
6:00 PM 39.2 °F 37.0 °F 37.4 °F 93% 30.45 in 3.7 mi West 3.5 mph - N/A   Mostly Cloudy
7:00 PM 39 °F - 34 °F 76% 30.52 in 4 mi West 2.3 mph - -   Mist
7:00 PM 39.2 °F - 37.4 °F 93% 30.45 in 4.3 mi Variable 2.3 mph - N/A   Mostly Cloudy
8:00 PM 39 °F - 34 °F 75% 30.53 in - Calm Calm - -  
8:00 PM 39.2 °F - 37.4 °F 93% 30.48 in 3.7 mi Variable 2.3 mph - N/A   Overcast
9:00 PM 39 °F - 34 °F 76% 30.53 in - West 1.2 mph - -  
9:00 PM 39.2 °F - 37.4 °F 93% 30.48 in 3.7 mi Variable 2.3 mph - N/A   Overcast
10:00 PM 39.2 °F - 37.4 °F 93% 30.48 in 3.7 mi Calm Calm - N/A   Overcast
11:00 PM 38 °F - 34 °F 78% 30.55 in - Calm Calm - -  
11:00 PM 39.2 °F - 37.4 °F 93% 30.48 in 3.7 mi Calm Calm - N/A   Overcast